User: anonymous   Login
Location: Black Swamp Observatory
(41.3920°N, 84.1250°W)
Time: 01:31:42
(UTC-05:00)
Language:

MaSat-1 - Orbit

View from above orbital plane
View from above orbital plane
View from above satellite
View from above satellite

Ground track
Ground track

The orbit data is extracted from the following two-line orbital elements,

1 38081U 12006E   14352.86286922  .00549830  10208-3  18321-2 0  6938
2 38081 069.4317 207.5143 0142180 080.4520 026.2413 15.75584295151735
Epoch (UTC): 18 December 2014 20:42:31
Eccentricity: 0.0142180
inclination: 69.4317°
perigee height: 247 km
apogee height: 438 km
right ascension of ascending node: 207.5143°
argument of perigee: 80.4520°
revolutions per day: 15.75584295
mean anomaly at epoch: 26.2413°
orbit number at epoch: 15173

The dashed part of the orbit path shows where the satellite is in the earth's shadow,  

DLR